Wind_Speed
25 25 26 27 27 28 28 28 29 28 28 27 27 28 28 28 28 28 28 28 29 30 30 31 31 32 33 34 35 36 38 39 40 42 43 44 45 45 46 46 47 47 46 47
25 25 27 27 27 28 28 28 29 28 27 27 28 29 28 28 29 29 29 29 29 30 30 30 31 31 32 33 35 36 37 38 39 41 42 43 44 44 45 47 47 48 48 47
25 26 28 27 26 27 28 29 29 28 26 26 27 27 28 28 29 29 31 31 31 31 31 31 31 31 32 33 34 36 36 38 39 40 40 41 43 44 45 46 47 48 49 49
26 26 27 26 26 26 27 27 27 27 27 27 27 27 28 28 29 30 31 31 32 32 32 31 32 33 34 34 35 35 36 37 37 38 40 40 42 43 45 46 46 47 48 48
25 25 26 25 24 25 25 26 26 27 27 28 28 27 28 28 30 30 31 31 31 32 32 33 33 34 34 35 35 36 36 36 36 37 38 39 40 42 44 45 46 46 46 46
23 24 24 22 22 24 25 25 25 26 27 27 27 27 27 29 29 29 29 30 31 32 32 33 34 34 34 34 35 35 35 35 36 36 37 38 39 41 42 43 44 44 44 44
22 22 22 21 21 22 24 24 25 26 26 26 27 26 27 27 28 28 29 29 30 31 32 32 33 33 34 34 34 35 35 36 36 37 37 38 39 39 40 41 42 41 41 41
21 22 21 21 22 22 23 24 24 25 26 26 26 26 26 27 27 27 28 28 29 30 31 32 33 33 34 34 34 34 35 35 35 36 37 37 38 38 38 39 39 39 39 38
22 22 22 23 23 23 23 23 24 25 26 26 26 26 27 26 27 27 27 28 29 30 30 31 32 32 32 33 33 33 34 34 34 35 36 36 36 36 36 37 37 37 37 37
24 23 23 23 24 24 24 24 24 25 25 26 27 28 27 27 27 27 27 28 29 29 30 30 31 31 31 30 31 31 32 32 33 33 34 34 35 35 35 35 35 34 34 35
23 22 23 22 23 24 25 24 25 25 26 27 28 28 28 28 28 28 28 29 29 30 29 28 28 28 29 29 29 29 30 31 32 32 32 33 33 33 33 33 32 32 33 33
22 22 23 22 23 24 24 24 25 25 26 26 27 27 28 28 28 28 28 28 28 28 28 27 27 27 27 27 27 27 28 29 29 30 30 31 32 32 32 32 32 32 32 32
23 23 24 23 24 24 24 24 24 24 25 26 26 27 27 27 28 28 28 28 27 27 26 26 26 25 25 25 25 26 26 27 28 29 29 30 30 31 30 30 31 31 31 30
23 24 23 23 23 23 24 24 24 24 24 25 26 27 27 27 27 27 28 28 27 27 26 25 25 25 26 26 26 26 27 27 27 28 28 29 28 28 28 28 29 30 29 29
24 24 23 23 24 24 23 23 23 23 24 24 25 26 26 26 26 27 27 27 27 27 26 26 25 26 26 26 27 27 27 27 27 27 27 27 27 27 27 27 27 27 27 28
25 25 24 24 24 23 22 22 22 22 23 23 24 25 25 25 25 26 26 27 27 27 27 26 26 26 26 26 27 27 27 27 27 26 26 26 26 26 26 26 26 26 26 26
24 24 24 24 23 23 22 22 22 22 23 23 24 24 24 25 25 25 26 26 26 26 26 27 27 27 27 27 27 26 27 27 26 25 25 26 26 25 25 25 25 25 25 25
25 25 24 24 24 23 23 23 23 24 24 24 24 24 24 25 25 25 25 25 25 26 26 26 27 27 27 27 27 27 27 26 25 25 25 25 24 25 25 25 25 24 25 25
25 25 25 25 25 24 24 24 24 25 25 25 25 25 25 25 25 25 25 25 26 26 26 26 26 26 26 26 26 25 25 25 26 25 25 25 24 24 24 24 24 24 24 24
26 26 25 25 25 25 25 25 25 26 26 26 26 26 26 26 26 25 25 26 26 27 27 27 26 26 26 25 25 25 26 26 26 26 25 25 25 24 24 24 23 24 23 23
27 26 26 25 25 25 26 26 27 27 27 27 27 27 27 27 26 26 26 26 26 26 26 26 26 26 26 26 26 26 26 26 26 26 26 25 25 24 24 24 24 24 24 23
27 27 27 27 27 27 27 27 28 28 28 28 28 28 27 27 26 26 26 25 25 25 25 25 26 26 26 26 26 26 26 27 27 27 26 26 25 24 24 24 24 23 23 23
27 27 27 27 27 28 28 27 28 28 28 28 28 27 27 27 26 25 25 25 25 25 25 25 25 25 25 25 25 26 26 27 27 27 26 25 25 24 24 24 24 23 23 22
27 27 27 26 26 27 27 27 27 27 27 26 26 26 26 26 26 25 25 25 25 25 25 25 25 25 25 25 25 26 26 26 26 26 25 25 24 24 24 23 23 23 22 21
26 26 26 26 26 26 26 26 25 25 25 25 25 26 26 26 26 25 25 25 25 25 25 25 25 25 25 26 26 26 26 25 25 24 24 24 23 22 22 21 21 20 20 19
25 25 25 25 24 24 24 24 24 24 25 25 25 26 26 26 26 25 25 26 26 26 26 25 25 25 25 25 25 25 25 25 24 23 23 22 22 21 20 19 19 18 18 18
25 24 24 24 24 24 24 24 24 25 25 26 26 26 27 27 27 27 27 27 27 27 27 26 25 25 24 24 24 24 24 23 23 22 22 21 20 20 19 19 18 17 17 17
Wind_Direction
266 265 265 265 262 261 263 267 267 266 267 268 269 271 272 273 274 275 273 271 270 270 268 266 263 262 262 263 264 264 264 265 265 265 265 266 267 267 267 266 266 267 269 271
268 266 265 264 263 263 263 266 268 267 268 269 269 270 271 272 273 274 274 274 273 271 270 268 267 266 267 267 267 267 267 267 267 267 268 269 269 269 268 267 268 269 270 271
271 268 267 266 265 265 266 267 267 267 269 270 269 271 272 272 273 275 275 274 274 272 270 269 268 268 270 269 270 270 269 268 268 269 269 269 270 270 269 269 269 269 270 270
275 271 270 270 269 269 267 268 268 268 269 270 271 272 272 272 273 274 275 275 274 273 272 272 271 271 272 273 272 273 273 272 271 271 270 270 270 270 270 270 271 271 270 270
279 278 275 273 272 271 269 268 267 268 269 272 273 274 273 274 274 275 275 275 275 275 273 273 272 273 273 273 274 275 274 273 274 274 273 273 272 272 272 272 272 273 272 270
281 282 279 277 274 273 272 270 268 268 270 273 275 276 276 276 277 277 276 275 274 274 274 274 275 274 274 273 273 274 274 275 275 275 275 275 276 276 276 275 274 274 272 270
282 282 281 280 277 275 275 274 270 270 272 274 276 278 279 279 278 277 277 277 276 275 275 275 275 275 275 275 274 274 275 276 277 277 277 277 278 278 278 278 276 275 273 271
282 281 282 283 280 277 277 275 273 273 274 275 278 279 281 280 278 279 279 278 278 278 277 276 276 276 276 277 276 275 276 277 277 278 278 278 279 279 279 279 277 275 273 272
281 282 282 280 278 277 277 276 275 275 274 275 276 279 281 280 278 278 278 279 280 281 280 278 277 277 278 278 277 277 277 278 279 280 280 280 281 281 281 280 278 276 274 272
283 283 282 280 278 278 277 277 277 276 276 276 277 279 279 280 280 280 279 281 283 284 283 281 279 279 280 280 280 279 279 279 281 282 282 283 282 283 283 282 279 278 277 275
284 283 281 280 279 278 276 277 278 278 278 278 279 280 280 280 279 280 281 281 283 284 284 282 281 281 281 281 283 283 283 282 282 283 284 284 285 285 285 284 281 281 279 277
287 285 282 283 282 279 279 279 278 278 279 281 281 281 282 280 280 281 282 282 283 284 284 282 282 282 282 282 284 285 285 285 285 286 286 286 287 286 285 284 283 284 284 281
288 286 284 283 284 284 282 281 281 281 280 280 282 283 283 281 281 282 282 283 283 283 283 282 282 282 281 282 284 285 287 288 288 288 288 289 288 287 286 285 286 286 286 283
289 288 285 285 286 286 284 282 284 285 285 284 284 285 285 283 281 281 281 282 282 282 282 282 281 281 281 282 285 287 289 290 290 291 291 291 290 287 286 286 287 287 286 284
289 289 288 287 287 287 286 285 286 287 288 288 288 288 287 285 283 283 282 281 281 282 281 281 282 282 282 283 286 288 290 290 291 292 293 292 290 288 288 289 289 288 287 286
291 289 289 287 287 286 286 287 289 290 290 291 291 289 288 286 284 283 282 282 282 281 281 281 281 283 284 285 286 288 289 290 291 293 293 292 291 290 289 290 291 291 289 287
291 290 288 286 285 284 285 286 288 289 291 293 293 292 290 288 286 285 283 282 283 283 283 282 282 283 284 285 285 287 288 289 290 291 291 291 291 291 291 291 292 293 291 289
293 290 288 286 284 283 283 284 285 287 290 292 293 293 292 291 289 287 285 284 285 285 284 283 284 284 284 284 285 286 287 288 289 290 291 291 291 291 291 291 291 292 292 290
294 291 288 284 282 282 283 284 286 287 289 291 293 294 294 293 291 288 286 285 286 287 286 285 285 284 284 283 284 285 285 286 288 289 291 291 290 290 291 292 293 293 294 293
293 291 288 285 283 283 283 284 285 287 289 290 292 293 293 293 291 289 287 286 286 286 286 285 285 284 284 284 284 284 285 286 287 288 288 289 288 288 289 290 291 292 293 293
293 291 288 286 286 285 284 284 285 286 287 289 291 292 292 292 292 290 288 288 288 287 286 285 285 285 285 285 285 285 285 286 286 286 286 286 286 286 288 290 290 290 291 292
292 290 287 286 285 286 286 286 287 287 287 288 289 290 291 291 292 290 289 289 289 289 288 286 285 284 284 284 286 287 287 287 287 287 286 285 285 286 287 288 289 290 290 291
292 291 288 285 285 285 286 287 288 288 288 289 289 290 291 291 290 290 289 288 288 288 288 286 284 283 283 285 286 287 287 288 288 287 286 285 284 285 286 288 288 290 290 290
293 291 288 285 285 285 286 287 288 289 290 290 291 291 292 292 291 290 289 289 288 289 288 286 284 283 283 285 286 287 288 288 288 288 287 286 284 284 285 286 288 289 289 290
295 293 289 286 284 284 285 287 289 290 291 292 293 293 293 292 290 289 289 290 289 289 289 288 286 285 285 285 287 288 289 289 288 288 287 285 283 284 284 285 286 287 289 290
296 294 291 287 286 285 286 287 289 291 292 293 293 293 293 292 290 289 289 290 289 289 290 290 289 288 287 287 288 289 290 289 289 289 287 285 283 281 282 284 285 287 288 288
298 296 293 290 288 287 287 288 290 292 293 294 294 294 294 294 292 291 290 289 289 288 289 290 289 288 287 288 289 290 292 291 290 289 287 285 282 280 280 281 283 285 286 287
Height
5602 5602 5603 5604 5605 5606 5606 5607 5607 5609 5610 5612 5611 5610 5610 5610 5610 5609 5609 5608 5608 5607 5607 5607 5607 5607 5607 5607 5607 5608 5608 5608 5609 5610 5610 5610 5611 5611 5611 5611 5611 5611 5610 5610
5595 5596 5595 5596 5598 5599 5600 5600 5600 5601 5602 5603 5603 5602 5602 5602 5602 5602 5601 5601 5600 5599 5599 5598 5598 5598 5598 5598 5598 5597 5597 5597 5598 5599 5599 5599 5599 5599 5599 5598 5598 5598 5597 5597
5589 5589 5588 5590 5593 5592 5592 5593 5593 5593 5596 5595 5595 5595 5594 5594 5594 5593 5593 5592 5591 5591 5590 5590 5590 5589 5589 5589 5588 5587 5587 5587 5587 5587 5587 5587 5587 5586 5586 5586 5585 5585 5584 5583
5582 5582 5582 5588 5586 5586 5585 5586 5586 5586 5586 5586 5587 5587 5586 5586 5585 5584 5584 5583 5583 5582 5581 5581 5581 5580 5579 5579 5578 5577 5577 5576 5576 5575 5575 5575 5574 5574 5573 5573 5572 5571 5571 5570
5575 5575 5576 5580 5579 5578 5578 5579 5579 5578 5578 5579 5578 5578 5579 5578 5577 5576 5575 5574 5573 5573 5572 5572 5571 5571 5570 5569 5568 5567 5566 5566 5565 5564 5563 5563 5562 5561 5561 5560 5559 5558 5557 5556
5570 5569 5570 5573 5572 5570 5571 5572 5571 5570 5570 5571 5570 5570 5571 5569 5568 5567 5566 5565 5564 5563 5563 5562 5561 5561 5560 5559 5558 5557 5557 5556 5555 5554 5553 5552 5551 5549 5548 5547 5546 5544 5543 5543
5564 5563 5564 5566 5564 5564 5565 5565 5563 5563 5562 5562 5562 5562 5562 5561 5559 5558 5557 5556 5555 5554 5554 5553 5552 5551 5550 5549 5548 5547 5546 5545 5544 5543 5542 5541 5539 5538 5536 5534 5533 5532 5531 5530
5558 5558 5561 5559 5557 5557 5556 5555 5555 5555 5555 5555 5555 5554 5554 5553 5551 5550 5549 5548 5547 5546 5545 5544 5542 5541 5540 5539 5538 5537 5536 5535 5534 5532 5531 5530 5528 5527 5525 5523 5521 5520 5519 5518
5553 5555 5553 5551 5550 5549 5548 5548 5548 5547 5548 5547 5547 5547 5546 5545 5544 5542 5541 5540 5539 5537 5536 5534 5532 5531 5530 5529 5528 5527 5526 5525 5523 5522 5521 5519 5518 5516 5514 5512 5510 5509 5508 5507
5546 5547 5546 5544 5543 5542 5541 5541 5540 5540 5540 5539 5539 5539 5538 5537 5536 5534 5533 5532 5530 5529 5527 5525 5523 5522 5520 5520 5518 5517 5516 5515 5513 5512 5510 5509 5507 5505 5504 5501 5500 5498 5498 5497
5540 5540 5538 5538 5536 5535 5534 5534 5533 5532 5532 5531 5531 5530 5529 5529 5528 5527 5525 5524 5522 5520 5518 5516 5514 5513 5512 5511 5509 5508 5507 5505 5504 5502 5501 5499 5497 5495 5493 5491 5490 5489 5488 5487
5534 5533 5531 5531 5529 5528 5527 5527 5526 5525 5525 5524 5523 5522 5521 5520 5519 5518 5517 5515 5514 5512 5510 5508 5506 5505 5504 5502 5501 5500 5498 5497 5495 5494 5492 5490 5488 5485 5483 5482 5480 5479 5477 5476
5527 5526 5524 5524 5522 5521 5520 5520 5519 5518 5517 5516 5515 5514 5512 5511 5511 5510 5508 5507 5506 5504 5502 5500 5499 5498 5496 5495 5494 5492 5491 5489 5487 5485 5483 5481 5479 5477 5475 5473 5471 5469 5468 5466
5520 5519 5518 5517 5516 5514 5513 5512 5511 5510 5509 5508 5507 5505 5504 5503 5502 5501 5500 5499 5497 5496 5494 5493 5492 5491 5489 5488 5486 5485 5483 5481 5479 5477 5475 5473 5470 5468 5466 5465 5463 5461 5459 5457
5514 5512 5511 5510 5509 5507 5506 5505 5504 5503 5502 5500 5499 5498 5496 5495 5494 5493 5491 5490 5489 5488 5486 5485 5484 5483 5482 5480 5479 5477 5475 5473 5471 5469 5467 5464 5462 5460 5458 5456 5455 5453 5451 5448
5508 5506 5504 5503 5502 5501 5500 5499 5498 5496 5495 5493 5492 5490 5489 5487 5486 5485 5483 5482 5481 5480 5478 5477 5476 5475 5474 5472 5471 5469 5467 5466 5463 5461 5459 5457 5455 5453 5451 5449 5447 5445 5443 5441
5501 5500 5498 5497 5496 5495 5494 5492 5491 5490 5488 5487 5485 5483 5481 5480 5478 5477 5475 5474 5473 5472 5470 5469 5468 5467 5466 5464 5463 5461 5460 5458 5456 5454 5452 5449 5447 5445 5443 5441 5439 5437 5435 5433
5494 5493 5491 5490 5489 5488 5487 5486 5484 5483 5481 5480 5478 5476 5474 5472 5471 5469 5467 5466 5465 5464 5462 5461 5460 5459 5457 5456 5455 5453 5452 5450 5448 5446 5444 5442 5440 5438 5436 5434 5432 5430 5428 5425
5487 5486 5484 5483 5481 5481 5480 5478 5477 5476 5474 5472 5471 5469 5467 5465 5463 5461 5460 5458 5457 5456 5455 5453 5452 5450 5449 5448 5446 5445 5443 5442 5440 5439 5437 5435 5433 5431 5429 5427 5425 5423 5421 5419
5479 5478 5476 5475 5474 5473 5472 5471 5469 5468 5466 5465 5463 5461 5460 5458 5455 5453 5452 5450 5449 5448 5446 5445 5444 5442 5441 5439 5438 5437 5435 5434 5432 5431 5429 5427 5426 5424 5422 5420 5419 5416 5414 5412
5471 5470 5468 5467 5466 5465 5463 5462 5461 5460 5458 5457 5455 5454 5452 5450 5448 5446 5444 5443 5441 5439 5438 5437 5436 5434 5433 5432 5430 5429 5427 5426 5424 5423 5421 5420 5418 5416 5415 5413 5411 5409 5407 5405
5463 5461 5460 5458 5457 5456 5455 5454 5452 5451 5449 5448 5447 5445 5443 5441 5440 5438 5436 5435 5433 5431 5430 5429 5427 5426 5425 5424 5422 5421 5419 5418 5416 5414 5413 5411 5410 5408 5407 5405 5404 5402 5400 5398
5455 5453 5451 5450 5449 5447 5446 5445 5444 5442 5441 5440 5438 5437 5435 5433 5431 5430 5428 5427 5425 5423 5422 5421 5419 5418 5417 5415 5414 5413 5411 5409 5408 5406 5405 5403 5402 5400 5399 5398 5396 5394 5393 5391
5446 5444 5443 5441 5440 5439 5438 5437 5435 5434 5432 5431 5430 5428 5427 5425 5424 5422 5420 5419 5417 5416 5414 5413 5411 5410 5409 5407 5406 5405 5403 5401 5400 5398 5396 5395 5394 5393 5391 5390 5388 5387 5386 5384
5438 5436 5434 5433 5432 5431 5430 5429 5427 5426 5425 5423 5422 5420 5419 5417 5416 5414 5412 5411 5409 5408 5406 5405 5403 5402 5400 5399 5398 5396 5395 5393 5392 5390 5388 5387 5386 5385 5383 5382 5381 5380 5379 5378
5431 5429 5427 5425 5424 5423 5422 5421 5420 5419 5417 5416 5414 5413 5411 5409 5407 5406 5404 5402 5401 5399 5398 5396 5395 5393 5392 5391 5390 5388 5387 5385 5384 5382 5381 5379 5378 5377 5377 5376 5375 5374 5373 5372
5424 5422 5420 5419 5417 5416 5415 5414 5413 5411 5410 5408 5407 5405 5402 5400 5398 5397 5395 5394 5392 5391 5389 5388 5386 5385 5384 5383 5381 5380 5378 5377 5376 5375 5373 5372 5371 5371 5370 5370 5369 5368 5367 5366